Temp
14 14 14 14 14 14 14 13 12 13 12 12 12 12 12 12 12 12 13 13 13 13 13 13 13 12 12 12 12 12 12 12 12 12 12 12 12 12 12 12 12 12
14 14 14 13 13 13 13 13 12 12 12 12 12 11 12 12 12 12 12 12 13 13 13 13 13 13 13 12 12 12 12 12 12 12 12 12 12 12 12 12 12 12
14 14 14 13 13 14 13 13 13 12 12 12 12 12 12 12 12 12 12 12 12 13 13 13 13 13 13 12 12 12 12 12 12 12 12 12 12 12 12 12 11 11
14 14 13 13 14 14 13 13 13 12 12 12 12 12 12 12 12 12 12 12 12 13 12 12 12 13 13 12 12 12 12 12 12 12 11 11 12 12 11 11 11 11
14 13 13 13 13 13 13 12 12 12 12 12 12 12 11 12 12 11 11 12 12 12 12 12 12 12 12 13 12 12 12 12 12 12 11 11 12 12 11 11 11 11
14 13 13 13 13 13 12 12 12 12 12 12 12 12 11 11 11 10 11 11 11 12 12 12 12 12 12 13 12 12 12 12 12 12 12 12 12 12 12 12 12 11
13 13 13 13 13 13 12 12 12 12 12 12 12 11 12 11 10 10 10 10 11 12 12 12 12 12 12 12 12 12 12 12 12 12 12 11 12 12 12 12 12 11
13 13 13 13 13 12 12 12 12 12 12 12 11 11 11 11 10 11 10 10 11 11 12 12 12 12 12 12 12 12 12 12 12 12 11 11 12 12 12 12 12 11
13 13 13 13 13 12 12 12 12 12 12 12 11 11 11 10 10 11 10 10 11 11 11 11 11 12 12 11 11 11 12 12 12 12 11 12 12 12 12 12 12 12
13 13 13 13 12 12 12 12 12 12 12 11 11 11 11 11 11 11 10 10 10 10 10 11 11 11 11 11 11 11 11 12 12 12 12 12 12 12 12 12 12 12
13 13 13 13 12 12 12 12 12 12 11 11 11 11 11 11 11 10 10 10 10 11 11 11 10 10 10 11 11 11 11 11 11 11 12 12 12 12 12 12 12 12
13 12 12 12 12 12 12 12 11 11 11 11 11 11 10 10 10 10 11 11 11 11 11 11 11 11 11 10 10 10 11 11 11 11 11 11 11 12 12 12 12 12
12 12 12 12 12 12 12 11 11 11 11 11 10 10 10 10 10 10 10 11 11 11 11 11 11 11 11 10 10 10 10 11 11 11 11 11 11 11 11 11 11 12
12 12 12 12 12 12 11 11 11 11 11 11 10 10 10 10 10 10 10 10 10 10 10 10 10 10 10 10 10 10 10 10 11 11 11 11 11 11 11 12 12 12
12 12 12 12 11 11 11 11 11 11 11 10 10 10 10 10 10 10 10 10 10 10 10 10 10 10 10 10 10 10 10 11 11 10 11 11 11 11 11 12 12 11
12 12 12 11 11 11 11 11 11 11 11 10 10 10 10 10 10 10 10 10 10 10 10 10 10 10 11 11 10 10 10 10 10 10 11 11 11 11 11 11 11 11
11 11 11 11 11 11 10 11 11 11 11 11 10 10 10 10 10 10 10 10 10 10 10 10 10 10 10 10 10 10 10 10 10 10 10 11 11 11 11 11 11 11
11 11 11 11 11 11 11 11 11 11 11 11 10 10 10 10 10 10 10 10 10 10 10 10 10 10 10 10 10 10 10 10 10 10 10 10 10 11 11 11 11 10
11 10 10 11 11 10 10 10 10 11 11 11 10 10 10 10 10 10 10 10 10 10 10 10 10 10 10 10 10 10 10 10 10 10 10 10 10 10 11 11 10 10
10 10 10 10 10 10 10 10 10 10 10 10 10 10 10 10 10 10 10 10 10 10 10 10 10 10 10 10 10 10 10 10 10 10 10 10 10 10 10 10 10 10
9 9 10 10 10 9 9 9 9 10 10 10 10 10 10 10 10 10 10 10 10 10 10 10 10 10 10 10 10 10 10 10 10 10 10 10 10 10 10 10 10 10
8 9 9 9 9 9 9 9 9 10 10 10 10 10 10 10 10 10 10 10 10 10 10 10 10 10 10 10 10 10 10 10 10 10 10 10 11 11 11 11 11 11
7 8 8 8 8 8 8 8 8 9 9 9 9 9 9 9 9 9 10 10 10 10 10 10 10 10 10 10 10 10 10 10 10 10 10 10 10 10 10 10 11 11
7 7 7 7 7 8 8 8 8 8 8 8 8 8 8 8 9 9 9 9 9 9 9 10 10 10 10 10 10 10 10 10 10 10 10 10 10 10 10 10 10 10
6 6 6 6 7 7 7 7 7 7 7 7 8 7 7 8 8 8 8 8 9 9 9 9 9 9 9 9 9 9 9 9 9 9 9 9 9 9 9 9 9 10
6 6 6 6 6 7 7 7 7 7 7 7 8 7 7 7 7 8 8 8 8 8 8 8 9 9 9 9 9 9 9 9 9 9 9 9 9 9 9 9 9 9
Height
1534 1536 1537 1539 1540 1542 1543 1543 1544 1545 1546 1547 1548 1548 1548 1548 1549 1550 1551 1551 1552 1553 1553 1553 1553 1554 1554 1555 1555 1556 1557 1558 1559 1561 1562 1563 1564 1565 1566 1568 1569 1570
1533 1535 1537 1539 1541 1542 1543 1544 1545 1546 1547 1547 1548 1549 1548 1549 1549 1550 1551 1552 1552 1553 1553 1554 1554 1554 1555 1555 1555 1556 1557 1558 1559 1560 1561 1562 1563 1564 1565 1567 1568 1570
1533 1535 1537 1539 1540 1541 1543 1544 1545 1546 1547 1548 1548 1549 1549 1549 1550 1550 1551 1552 1552 1553 1553 1554 1554 1554 1555 1555 1556 1556 1556 1557 1558 1559 1560 1561 1562 1563 1564 1565 1567 1568
1532 1534 1536 1538 1540 1541 1543 1544 1545 1546 1547 1548 1549 1549 1549 1550 1550 1551 1552 1552 1552 1553 1553 1554 1554 1554 1555 1555 1556 1556 1556 1557 1558 1559 1560 1561 1561 1562 1563 1564 1565 1566
1532 1533 1535 1537 1539 1541 1542 1543 1545 1546 1547 1548 1549 1549 1549 1550 1551 1551 1552 1552 1552 1553 1553 1553 1554 1554 1555 1555 1556 1556 1556 1557 1557 1559 1560 1560 1561 1562 1562 1564 1565 1565
1531 1533 1535 1536 1538 1540 1541 1543 1544 1546 1547 1548 1548 1549 1549 1550 1551 1552 1552 1553 1553 1553 1553 1554 1554 1554 1555 1555 1556 1556 1556 1557 1558 1558 1560 1560 1561 1562 1562 1563 1564 1565
1530 1532 1534 1536 1537 1539 1540 1542 1543 1545 1546 1547 1548 1549 1549 1550 1551 1552 1553 1553 1553 1554 1554 1554 1554 1554 1555 1555 1555 1556 1556 1557 1557 1558 1559 1560 1561 1561 1562 1563 1564 1565
1530 1532 1534 1536 1537 1538 1540 1541 1543 1544 1545 1546 1547 1548 1549 1550 1551 1551 1552 1553 1554 1554 1554 1554 1554 1554 1555 1555 1555 1556 1556 1557 1557 1558 1559 1560 1561 1561 1562 1563 1564 1565
1529 1531 1533 1535 1537 1538 1539 1540 1542 1543 1545 1546 1547 1548 1548 1550 1550 1551 1552 1553 1553 1554 1554 1554 1554 1554 1555 1556 1556 1556 1557 1557 1558 1559 1560 1560 1561 1562 1563 1564 1564 1565
1528 1530 1532 1534 1536 1538 1539 1540 1541 1543 1544 1545 1546 1547 1548 1549 1550 1551 1552 1553 1553 1554 1555 1555 1555 1555 1555 1556 1557 1558 1558 1559 1559 1559 1560 1561 1563 1564 1564 1565 1565 1566
1528 1530 1532 1533 1535 1537 1538 1540 1541 1542 1543 1544 1546 1547 1547 1548 1549 1551 1552 1553 1554 1555 1556 1556 1557 1557 1557 1557 1557 1558 1559 1560 1560 1561 1561 1562 1563 1564 1565 1565 1566 1566
1528 1529 1531 1533 1534 1536 1538 1539 1540 1541 1543 1544 1545 1546 1547 1548 1549 1550 1552 1553 1554 1555 1557 1557 1558 1558 1558 1558 1558 1558 1559 1560 1560 1561 1562 1562 1563 1564 1564 1565 1566 1567
1527 1529 1530 1532 1534 1536 1537 1539 1540 1541 1542 1544 1545 1546 1546 1547 1549 1550 1551 1553 1554 1555 1556 1557 1557 1558 1558 1559 1559 1559 1559 1559 1560 1561 1561 1562 1563 1563 1564 1565 1566 1566
1526 1529 1530 1532 1533 1535 1536 1538 1539 1541 1542 1543 1545 1546 1547 1547 1548 1549 1551 1552 1553 1554 1555 1556 1556 1557 1558 1558 1559 1560 1560 1559 1560 1561 1561 1562 1562 1563 1563 1564 1565 1566
1526 1529 1530 1531 1533 1534 1535 1537 1538 1540 1542 1543 1545 1546 1547 1547 1548 1549 1550 1551 1552 1553 1554 1554 1555 1556 1556 1557 1558 1559 1560 1560 1560 1561 1562 1562 1563 1563 1563 1564 1565 1565
1525 1527 1529 1531 1532 1533 1535 1536 1538 1539 1541 1544 1545 1546 1546 1547 1548 1549 1550 1551 1552 1552 1552 1553 1554 1555 1555 1556 1557 1558 1559 1560 1560 1561 1562 1562 1563 1563 1563 1563 1564 1565
1523 1526 1528 1529 1531 1533 1535 1536 1537 1539 1541 1543 1545 1546 1546 1547 1548 1549 1550 1551 1551 1551 1552 1553 1554 1554 1555 1556 1556 1557 1558 1559 1559 1560 1561 1562 1563 1563 1563 1564 1564 1565
1521 1524 1526 1528 1531 1532 1534 1536 1537 1538 1540 1542 1544 1545 1546 1546 1547 1548 1549 1550 1550 1551 1552 1553 1554 1555 1555 1556 1557 1557 1558 1558 1559 1560 1560 1561 1562 1563 1563 1564 1564 1564
1520 1523 1525 1528 1530 1532 1533 1535 1536 1537 1539 1541 1543 1545 1545 1546 1547 1548 1548 1549 1550 1551 1552 1553 1554 1555 1555 1556 1557 1557 1558 1559 1560 1560 1560 1561 1561 1561 1562 1563 1563 1563
1519 1523 1526 1528 1530 1531 1533 1534 1535 1536 1538 1540 1541 1543 1544 1545 1546 1547 1548 1548 1549 1550 1551 1552 1553 1554 1555 1556 1557 1557 1558 1558 1559 1559 1560 1560 1560 1560 1561 1561 1562 1562
1520 1522 1525 1527 1529 1531 1532 1534 1535 1536 1537 1538 1540 1541 1543 1544 1545 1546 1547 1548 1549 1550 1550 1551 1553 1554 1555 1556 1556 1557 1558 1558 1558 1559 1559 1559 1560 1560 1561 1561 1561 1562
1520 1521 1524 1526 1528 1530 1531 1533 1534 1535 1536 1537 1538 1540 1542 1544 1544 1545 1546 1547 1548 1549 1550 1551 1552 1553 1554 1555 1555 1556 1557 1558 1558 1558 1559 1559 1559 1560 1560 1560 1560 1561
1520 1521 1524 1526 1527 1529 1531 1532 1533 1534 1535 1536 1538 1539 1541 1543 1544 1544 1545 1547 1548 1548 1549 1550 1551 1552 1553 1553 1554 1555 1556 1557 1557 1557 1558 1558 1558 1559 1559 1559 1559 1559
1521 1523 1525 1527 1528 1529 1531 1532 1533 1534 1535 1536 1537 1539 1541 1542 1543 1543 1544 1545 1546 1547 1548 1549 1550 1551 1551 1552 1553 1553 1554 1555 1555 1556 1556 1556 1557 1557 1557 1557 1556 1557
1522 1525 1527 1528 1530 1530 1531 1532 1533 1534 1534 1536 1537 1539 1541 1542 1542 1542 1543 1543 1544 1545 1547 1548 1548 1549 1550 1550 1551 1551 1552 1552 1553 1554 1554 1554 1555 1555 1555 1555 1554 1554
1524 1526 1528 1529 1530 1530 1531 1532 1533 1534 1535 1536 1537 1539 1540 1541 1541 1542 1542 1543 1544 1545 1545 1546 1546 1547 1547 1548 1548 1549 1549 1550 1551 1551 1551 1552 1552 1552 1553 1552 1552 1551
Wind_Speed
17 15 15 15 13 13 13 12 11 10 9 9 8 8 8 8 8 9 10 10 10 10 9 9 10 11 11 11 12 12 14 15 15 14 14 13 13 13 12 11 11 11
16 15 15 15 14 14 14 13 12 10 10 9 8 8 8 7 7 8 8 9 10 10 10 10 10 10 10 10 11 12 12 13 13 13 13 12 12 12 12 11 10 10
17 16 16 15 16 16 15 14 12 11 10 9 8 7 6 7 7 7 7 8 9 10 11 11 11 11 10 9 9 10 11 12 12 12 11 11 11 11 11 10 9 10
18 17 16 16 17 17 15 13 11 10 9 7 6 5 5 6 7 7 8 9 10 10 10 11 11 12 11 10 9 10 11 11 11 11 11 10 9 8 8 8 9 10
19 18 17 16 16 16 14 12 10 9 8 7 5 4 5 6 7 7 8 9 10 11 11 11 11 12 11 10 10 10 11 11 10 11 10 9 9 8 8 9 9 10
20 18 17 17 16 16 14 12 11 10 8 7 5 4 5 6 6 5 5 7 9 9 10 10 11 11 11 10 10 10 11 11 11 11 10 10 10 9 9 9 9 11
20 18 17 16 16 16 15 14 13 11 9 8 6 5 6 6 6 5 5 6 7 8 8 9 11 11 11 11 10 9 10 11 11 11 10 10 10 10 10 10 9 10
19 18 17 16 16 16 16 15 13 12 10 8 7 6 6 6 5 6 6 6 8 8 8 9 10 11 11 10 10 10 10 11 12 11 9 9 10 10 10 11 11 10
19 18 17 16 15 16 17 16 14 12 10 9 7 6 6 7 6 5 6 8 9 9 9 9 9 10 10 9 9 11 11 12 13 11 10 11 11 10 9 10 11 11
19 19 18 16 15 16 16 16 14 12 11 9 8 6 6 7 6 6 7 8 9 8 8 8 8 9 11 10 10 10 10 12 13 12 11 10 10 9 9 8 9 10
19 18 17 17 17 17 16 15 14 13 11 9 7 7 7 6 6 7 7 8 8 7 7 7 6 7 9 10 11 12 11 10 11 11 10 9 9 9 9 8 8 9
19 17 17 18 17 16 15 14 14 13 11 9 8 8 7 6 6 7 8 8 8 8 7 7 7 7 7 8 9 11 12 12 11 11 10 9 10 9 9 9 8 9
19 17 18 19 17 16 16 15 14 13 10 9 9 8 7 7 7 7 8 8 8 8 8 7 7 7 7 8 8 9 11 13 14 13 11 11 11 10 10 11 9 10
20 18 19 19 18 18 18 17 16 14 11 10 10 9 8 7 7 8 8 9 9 8 7 7 7 6 7 8 7 7 9 11 13 13 11 12 12 11 12 12 11 11
20 19 20 20 19 20 20 19 17 14 12 11 10 10 10 9 8 8 8 8 8 8 7 9 10 10 10 11 9 7 7 9 12 12 10 10 10 10 11 11 11 12
22 21 21 21 20 21 21 19 16 13 12 12 12 11 11 11 9 8 7 7 7 8 10 11 11 10 10 11 12 10 8 8 9 10 9 8 8 8 9 9 10 11
24 23 22 22 22 22 20 16 13 11 11 13 14 13 13 12 10 8 8 7 7 8 10 10 10 9 9 9 10 10 10 9 8 9 9 8 7 7 7 7 8 8
24 23 23 23 23 21 18 15 14 13 13 15 16 15 14 13 12 10 10 9 8 8 8 8 8 8 8 8 8 8 8 7 7 8 9 8 7 7 6 7 7 7
20 21 23 25 24 21 18 16 16 17 17 17 17 17 16 14 13 11 10 10 10 9 8 8 8 8 7 8 8 8 8 7 5 6 7 7 8 8 8 8 8 7
18 20 21 22 22 20 17 17 18 19 19 18 18 18 17 16 14 12 10 10 10 9 9 9 9 8 8 7 7 7 7 6 6 6 7 7 8 9 10 10 10 9
20 21 20 20 20 18 16 17 18 19 19 18 18 18 17 16 15 13 11 10 11 11 10 10 10 9 8 8 7 6 6 6 6 7 8 9 10 10 11 11 12 12
20 20 20 21 20 18 17 17 17 17 18 17 16 16 16 16 15 13 12 11 11 11 11 11 11 10 10 9 8 8 7 7 8 8 9 10 11 11 11 12 13 13
18 18 20 20 19 18 18 17 17 16 16 15 14 14 14 15 14 13 12 12 11 12 12 12 11 11 11 10 10 10 10 10 10 11 11 12 13 13 13 15 16 15
18 18 18 18 17 17 17 16 16 16 15 15 14 13 13 13 13 13 13 13 13 13 13 12 12 11 11 11 11 11 11 12 12 13 14 14 15 16 16 18 19 19
18 17 16 14 13 13 14 14 15 14 13 13 12 12 11 12 12 13 13 14 15 15 14 15 14 13 12 11 11 11 12 12 13 14 15 15 16 17 17 18 21 22
16 15 14 13 12 10 10 11 11 10 9 10 11 12 11 11 11 11 12 14 13 12 12 14 15 14 12 11 11 11 11 13 14 15 16 17 17 18 18 19 21 22
Wind_Direction
179 181 179 179 180 182 181 176 171 166 162 162 163 167 178 186 186 184 186 188 190 192 196 197 195 196 195 195 200 202 202 201 201 202 204 208 208 209 213 211 207 205
178 179 177 177 181 184 180 172 164 159 160 161 163 171 184 191 190 188 188 188 188 189 194 195 193 195 198 201 203 200 198 196 198 201 202 204 206 206 205 201 200 196
175 175 176 180 183 180 173 170 164 159 163 166 169 182 192 194 194 195 193 186 185 189 194 196 194 194 197 203 206 203 197 192 195 198 197 201 204 201 197 194 197 196
173 173 175 180 180 174 168 167 162 157 160 163 168 185 191 192 193 194 196 189 184 189 196 198 199 198 199 202 205 208 201 191 194 197 196 204 203 192 188 187 196 195
174 172 173 174 175 173 168 164 161 156 156 157 163 175 178 182 185 187 192 192 190 194 198 200 202 199 200 202 200 206 206 199 200 198 197 204 200 190 189 188 194 191
175 174 173 173 174 172 168 165 164 160 158 161 160 159 171 176 177 179 186 192 193 197 201 204 206 202 202 203 197 197 202 203 201 195 194 199 196 192 190 187 190 185
180 178 175 176 175 171 170 168 166 165 165 166 160 162 172 172 176 183 184 187 187 190 198 202 205 206 204 201 194 191 193 195 194 190 191 194 188 185 182 174 176 177
186 182 178 179 177 173 172 170 167 168 169 168 168 173 169 164 182 193 181 178 182 184 190 191 194 200 200 194 187 185 186 184 182 179 179 180 173 170 167 161 162 169
187 183 180 181 179 176 174 170 169 170 169 167 173 179 168 167 183 185 173 175 180 180 179 178 180 182 179 172 166 168 170 167 164 163 165 163 157 154 154 150 150 158
183 181 180 180 179 177 174 171 169 168 168 168 172 178 174 176 176 169 170 177 177 173 167 165 169 167 162 157 155 155 157 159 158 155 156 154 150 153 153 145 140 141
181 180 180 178 176 175 173 172 170 168 171 170 171 175 174 173 169 164 169 172 169 170 169 168 169 166 165 167 165 159 155 157 157 154 152 153 155 157 154 151 151 147
182 183 181 175 171 170 171 172 171 171 170 166 166 171 169 164 164 165 169 171 170 170 175 179 174 167 168 172 170 166 164 165 164 161 159 159 160 160 159 159 159 162
185 187 180 172 169 169 170 170 171 170 164 160 163 165 160 156 161 166 166 168 172 171 174 180 176 172 172 170 170 171 172 175 175 173 172 173 174 175 177 174 168 171
183 185 179 173 172 171 170 170 169 166 162 160 160 156 149 145 149 157 158 163 171 171 172 177 172 175 177 171 174 180 181 184 184 181 183 187 188 190 192 189 182 177
183 182 180 178 177 172 170 169 167 165 164 161 158 157 155 147 143 149 153 159 166 168 180 188 184 186 185 177 176 180 185 192 190 186 187 190 191 195 197 193 185 182
183 183 183 180 178 172 169 168 165 164 166 166 165 164 162 155 148 148 150 153 163 176 189 192 188 188 188 184 179 175 176 186 189 189 188 186 186 188 189 183 178 183
182 184 184 181 178 175 174 174 175 178 182 181 179 174 168 164 161 162 163 165 174 182 182 181 182 183 185 187 184 178 175 174 176 182 183 183 183 183 186 185 180 187
184 186 185 182 181 181 183 186 188 192 198 197 192 186 180 177 176 179 184 189 193 191 186 185 188 190 191 191 189 189 185 174 173 182 180 180 183 180 183 188 186 193
186 189 185 184 186 188 192 197 196 195 199 200 197 195 192 189 188 189 193 199 203 203 202 201 199 198 199 195 192 195 190 177 181 191 185 186 194 192 192 194 194 203
197 195 187 190 197 198 197 200 198 195 195 197 198 199 199 198 197 197 199 202 206 209 211 213 213 212 210 206 202 200 196 191 199 205 204 209 212 212 215 217 218 220
195 191 187 193 201 200 196 198 197 196 197 198 199 200 203 205 204 204 206 207 208 210 212 214 219 221 222 224 225 225 224 224 227 229 231 233 232 232 235 236 237 238
180 179 182 186 187 185 185 189 192 195 196 196 198 200 202 205 205 206 211 215 216 217 217 217 220 224 227 231 237 243 246 246 246 248 249 249 248 248 250 250 248 247
168 171 173 175 177 177 178 179 181 185 188 190 194 195 196 198 199 203 210 217 224 227 226 224 223 224 228 233 239 245 249 252 254 255 256 258 259 260 261 260 258 256
153 157 157 160 165 168 170 172 172 174 177 181 184 187 193 195 195 201 209 217 224 229 232 234 232 229 229 233 239 245 251 254 257 259 261 262 264 264 264 265 265 263
142 147 149 153 158 162 167 170 172 174 175 179 185 190 197 204 204 206 211 215 217 220 225 231 234 232 231 236 243 249 255 259 260 263 265 265 266 268 267 269 270 269
143 148 152 154 154 158 162 161 171 186 188 196 211 214 215 222 225 225 229 228 224 222 228 233 235 234 234 241 252 259 264 269 270 270 272 271 270 271 271 272 274 274